Time,TemperatureF,DewpointF,PressureIn,WindDirection,WindDirectionDegrees,WindSpeedMPH,WindSpeedGustMPH,Humidity,HourlyPrecipIn,Conditions,Clouds,dailyrainin,SolarRadiationWatts/m^2,SoftwareType,DateUTC
2013-01-02 00:00:00,19.4,1.1,29.90,NW,314,11.0,19.0,44,0.00,,,0.00,0,WeatherHawk,2013-01-02 05:00:00,
2013-01-02 00:02:00,19.4,1.6,29.90,NNW,333,11.0,19.0,45,0.00,,,0.00,0,WeatherHawk,2013-01-02 05:02:00,
2013-01-02 00:03:00,19.4,1.1,29.90,WNW,302,9.0,18.0,44,0.00,,,0.00,0,WeatherHawk,2013-01-02 05:03:00,
2013-01-02 00:05:00,19.4,1.6,29.90,WNW,303,14.0,15.0,45,0.00,,,0.00,0,WeatherHawk,2013-01-02 05:05:00,
2013-01-02 00:10:00,19.2,0.9,29.91,NW,319,11.0,18.0,44,0.00,,,0.00,0,WeatherHawk,2013-01-02 05:10:00,
2013-01-02 00:12:00,19.2,0.9,29.90,NW,306,16.0,19.0,44,0.00,,,0.00,0,WeatherHawk,2013-01-02 05:12:00,
2013-01-02 00:17:00,19.2,0.9,29.90,WNW,293,8.0,20.0,44,0.00,,,0.00,0,WeatherHawk,2013-01-02 05:17:00,
2013-01-02 00:22:00,19.0,0.8,29.90,NW,309,16.0,20.0,44,0.00,,,0.00,0,WeatherHawk,2013-01-02 05:22:00,
2013-01-02 00:27:00,18.9,0.6,29.90,NW,315,12.0,22.0,44,0.00,,,0.00,0,WeatherHawk,2013-01-02 05:27:00,
2013-01-02 00:32:00,18.9,0.6,29.91,NW,311,15.0,22.0,44,0.00,,,0.00,0,WeatherHawk,2013-01-02 05:32:00,
2013-01-02 00:37:00,18.7,0.9,29.91,WNW,290,13.0,18.0,45,0.00,,,0.00,0,WeatherHawk,2013-01-02 05:37:00,
2013-01-02 00:42:00,18.7,0.9,29.91,NW,309,9.0,20.0,45,0.00,,,0.00,0,WeatherHawk,2013-01-02 05:42:00,
2013-01-02 00:47:00,18.5,0.7,29.91,WNW,295,14.0,20.0,45,0.00,,,0.00,0,WeatherHawk,2013-01-02 05:47:00,
2013-01-02 00:52:00,18.5,0.7,29.92,WNW,295,11.0,19.0,45,0.00,,,0.00,0,WeatherHawk,2013-01-02 05:52:00,
2013-01-02 00:57:00,18.3,0.6,29.91,NW,312,16.0,19.0,45,0.00,,,0.00,0,WeatherHawk,2013-01-02 05:57:00,
2013-01-02 01:02:00,18.3,1.0,29.91,WNW,291,12.0,19.0,46,0.00,,,0.00,0,WeatherHawk,2013-01-02 06:02:00,
2013-01-02 01:07:00,18.1,0.9,29.91,NNW,333,4.0,19.0,46,0.00,,,0.00,0,WeatherHawk,2013-01-02 06:07:00,
2013-01-02 01:12:00,18.0,0.7,29.91,NW,315,9.0,18.0,46,0.00,,,0.00,0,WeatherHawk,2013-01-02 06:12:00,
2013-01-02 01:17:00,18.0,0.7,29.91,NW,317,9.0,16.0,46,0.00,,,0.00,0,WeatherHawk,2013-01-02 06:17:00,
2013-01-02 01:22:00,17.8,0.5,29.91,WNW,283,10.0,16.0,46,0.00,,,0.00,0,WeatherHawk,2013-01-02 06:22:00,
2013-01-02 01:27:00,17.8,1.0,29.92,NW,321,9.0,14.0,47,0.00,,,0.00,0,WeatherHawk,2013-01-02 06:27:00,
2013-01-02 01:32:00,17.8,1.0,29.92,NW,315,9.0,17.0,47,0.00,,,0.00,0,WeatherHawk,2013-01-02 06:32:00,
2013-01-02 01:37:00,17.6,0.8,29.92,NW,318,8.0,17.0,47,0.00,,,0.00,0,WeatherHawk,2013-01-02 06:37:00,
2013-01-02 01:42:00,17.6,1.3,29.93,NW,311,8.0,11.0,48,0.00,,,0.00,0,WeatherHawk,2013-01-02 06:42:00,
2013-01-02 01:47:00,17.6,0.8,29.93,NW,311,9.0,15.0,47,0.00,,,0.00,0,WeatherHawk,2013-01-02 06:47:00,
2013-01-02 01:52:00,17.4,1.1,29.93,WNW,300,8.0,15.0,48,0.00,,,0.00,0,WeatherHawk,2013-01-02 06:52:00,
2013-01-02 01:57:00,17.4,1.1,29.93,NW,309,8.0,10.0,48,0.00,,,0.00,0,WeatherHawk,2013-01-02 06:57:00,
2013-01-02 02:02:00,17.4,1.1,29.93,NW,319,8.0,15.0,48,0.00,,,0.00,0,WeatherHawk,2013-01-02 07:02:00,
2013-01-02 02:07:00,17.2,1.0,29.94,NW,313,10.0,15.0,48,0.00,,,0.00,0,WeatherHawk,2013-01-02 07:07:00,
2013-01-02 02:12:00,17.2,1.4,29.94,WNW,284,10.0,13.0,49,0.00,,,0.00,0,WeatherHawk,2013-01-02 07:12:00,
2013-01-02 02:17:00,17.1,1.2,29.94,NW,321,8.0,10.0,49,0.00,,,0.00,0,WeatherHawk,2013-01-02 07:17:00,
2013-01-02 02:22:00,17.1,1.2,29.94,WNW,288,8.0,11.0,49,0.00,,,0.00,0,WeatherHawk,2013-01-02 07:22:00,
2013-01-02 02:27:00,17.1,1.2,29.94,NW,321,9.0,11.0,49,0.00,,,0.00,0,WeatherHawk,2013-01-02 07:27:00,
2013-01-02 02:32:00,17.1,1.2,29.94,WNW,294,12.0,13.0,49,0.00,,,0.00,0,WeatherHawk,2013-01-02 07:32:00,
2013-01-02 02:37:00,17.1,0.8,29.94,NW,313,9.0,15.0,48,0.00,,,0.00,0,WeatherHawk,2013-01-02 07:37:00,
2013-01-02 02:42:00,17.1,0.8,29.94,WNW,283,10.0,18.0,48,0.00,,,0.00,0,WeatherHawk,2013-01-02 07:42:00,
2013-01-02 02:47:00,17.1,1.2,29.93,WNW,299,10.0,18.0,49,0.00,,,0.00,0,WeatherHawk,2013-01-02 07:47:00,
2013-01-02 02:52:00,17.1,1.2,29.94,NW,307,9.0,15.0,49,0.00,,,0.00,0,WeatherHawk,2013-01-02 07:52:00,
2013-01-02 02:57:00,16.9,1.1,29.94,WNW,287,10.0,15.0,49,0.00,,,0.00,0,WeatherHawk,2013-01-02 07:57:00,
2013-01-02 03:03:00,16.9,1.1,29.94,WNW,301,8.0,12.0,49,0.00,,,0.00,0,WeatherHawk,2013-01-02 08:03:00,
2013-01-02 03:08:00,16.9,1.1,29.94,WNW,302,9.0,13.0,49,0.00,,,0.00,0,WeatherHawk,2013-01-02 08:08:00,
2013-01-02 03:13:00,16.7,1.3,29.94,WNW,301,6.0,13.0,50,0.00,,,0.00,0,WeatherHawk,2013-01-02 08:13:00,
2013-01-02 03:18:00,16.7,0.9,29.94,NW,310,8.0,12.0,49,0.00,,,0.00,0,WeatherHawk,2013-01-02 08:18:00,
2013-01-02 03:23:00,16.7,1.3,29.94,WNW,286,10.0,12.0,50,0.00,,,0.00,0,WeatherHawk,2013-01-02 08:23:00,
2013-01-02 03:28:00,16.5,1.2,29.94,WNW,287,8.0,11.0,50,0.00,,,0.00,0,WeatherHawk,2013-01-02 08:28:00,
2013-01-02 03:33:00,16.3,1.0,29.94,WNW,303,14.0,14.0,50,0.00,,,0.00,0,WeatherHawk,2013-01-02 08:33:00,
2013-01-02 03:38:00,16.3,1.0,29.93,NW,307,8.0,14.0,50,0.00,,,0.00,0,WeatherHawk,2013-01-02 08:38:00,
2013-01-02 03:43:00,16.2,0.8,29.93,NW,304,8.0,14.0,50,0.00,,,0.00,0,WeatherHawk,2013-01-02 08:43:00,
2013-01-02 03:48:00,16.2,0.8,29.93,NW,311,7.0,10.0,50,0.00,,,0.00,0,WeatherHawk,2013-01-02 08:48:00,
2013-01-02 03:53:00,16.2,1.2,29.92,WNW,300,8.0,9.0,51,0.00,,,0.00,0,WeatherHawk,2013-01-02 08:53:00,
2013-01-02 03:58:00,16.2,1.2,29.92,West,273,10.0,10.0,51,0.00,,,0.00,0,WeatherHawk,2013-01-02 08:58:00,
2013-01-02 04:03:00,16.2,0.8,29.92,NW,309,9.0,12.0,50,0.00,,,0.00,0,WeatherHawk,2013-01-02 09:03:00,
2013-01-02 04:08:00,16.2,0.8,29.93,NW,304,7.0,12.0,50,0.00,,,0.00,0,WeatherHawk,2013-01-02 09:08:00,
2013-01-02 04:13:00,16.2,0.8,29.92,WNW,287,10.0,11.0,50,0.00,,,0.00,0,WeatherHawk,2013-01-02 09:13:00,
2013-01-02 04:18:00,16.0,1.1,29.92,WNW,284,9.0,10.0,51,0.00,,,0.00,0,WeatherHawk,2013-01-02 09:18:00,
2013-01-02 04:23:00,16.0,1.1,29.92,NW,308,8.0,11.0,51,0.00,,,0.00,0,WeatherHawk,2013-01-02 09:23:00,
2013-01-02 04:28:00,16.0,1.1,29.92,NW,310,12.0,12.0,51,0.00,,,0.00,0,WeatherHawk,2013-01-02 09:28:00,
2013-01-02 04:33:00,16.0,1.1,29.92,West,269,8.0,12.0,51,0.00,,,0.00,0,WeatherHawk,2013-01-02 09:33:00,
2013-01-02 04:38:00,16.2,1.2,29.92,WNW,285,10.0,12.0,51,0.00,,,0.00,0,WeatherHawk,2013-01-02 09:38:00,
2013-01-02 04:43:00,16.2,0.8,29.92,WNW,297,9.0,13.0,50,0.00,,,0.00,0,WeatherHawk,2013-01-02 09:43:00,
2013-01-02 04:48:00,16.3,1.0,29.91,West,274,10.0,17.0,50,0.00,,,0.00,0,WeatherHawk,2013-01-02 09:48:00,
2013-01-02 04:53:00,16.3,1.0,29.91,WNW,290,12.0,17.0,50,0.00,,,0.00,0,WeatherHawk,2013-01-02 09:53:00,
2013-01-02 04:58:00,16.3,1.0,29.91,WNW,293,10.0,15.0,50,0.00,,,0.00,0,WeatherHawk,2013-01-02 09:58:00,
2013-01-02 05:03:00,16.3,1.4,29.91,WNW,294,9.0,15.0,51,0.00,,,0.00,0,WeatherHawk,2013-01-02 10:03:00,
2013-01-02 05:08:00,16.3,1.0,29.92,WNW,286,10.0,16.0,50,0.00,,,0.00,0,WeatherHawk,2013-01-02 10:08:00,
2013-01-02 05:13:00,16.5,1.2,29.92,WNW,293,10.0,16.0,50,0.00,,,0.00,0,WeatherHawk,2013-01-02 10:13:00,
2013-01-02 05:18:00,16.5,1.2,29.92,WNW,296,9.0,15.0,50,0.00,,,0.00,0,WeatherHawk,2013-01-02 10:18:00,
2013-01-02 05:23:00,16.5,1.6,29.92,WNW,284,9.0,17.0,51,0.00,,,0.00,0,WeatherHawk,2013-01-02 10:23:00,
2013-01-02 05:28:00,16.3,1.4,29.92,NW,307,7.0,17.0,51,0.00,,,0.00,0,WeatherHawk,2013-01-02 10:28:00,
2013-01-02 05:33:00,16.3,1.4,29.93,WNW,302,7.0,15.0,51,0.00,,,0.00,0,WeatherHawk,2013-01-02 10:33:00,
2013-01-02 05:38:00,16.3,1.4,29.92,WNW,292,8.0,15.0,51,0.00,,,0.00,0,WeatherHawk,2013-01-02 10:38:00,
2013-01-02 05:43:00,16.2,1.7,29.92,WNW,292,9.0,14.0,52,0.00,,,0.00,0,WeatherHawk,2013-01-02 10:43:00,
2013-01-02 05:48:00,16.2,1.7,29.92,WNW,287,9.0,14.0,52,0.00,,,0.00,0,WeatherHawk,2013-01-02 10:48:00,
2013-01-02 05:53:00,16.2,1.7,29.93,WNW,303,9.0,13.0,52,0.00,,,0.00,0,WeatherHawk,2013-01-02 10:53:00,
2013-01-02 05:58:00,16.2,1.7,29.92,WNW,297,7.0,14.0,52,0.00,,,0.00,0,WeatherHawk,2013-01-02 10:58:00,
2013-01-02 06:03:00,16.3,2.2,29.92,WNW,301,10.0,14.0,53,0.00,,,0.00,0,WeatherHawk,2013-01-02 11:03:00,
2013-01-02 06:08:00,16.3,1.8,29.92,WNW,290,9.0,14.0,52,0.00,,,0.00,0,WeatherHawk,2013-01-02 11:08:00,
2013-01-02 06:13:00,16.3,2.2,29.92,WNW,303,7.0,14.0,53,0.00,,,0.00,0,WeatherHawk,2013-01-02 11:13:00,
2013-01-02 06:18:00,16.3,2.2,29.92,NNW,331,6.0,13.0,53,0.00,,,0.00,0,WeatherHawk,2013-01-02 11:18:00,
2013-01-02 06:23:00,16.3,2.6,29.93,NW,309,11.0,13.0,54,0.00,,,0.00,0,WeatherHawk,2013-01-02 11:23:00,
2013-01-02 06:28:00,16.3,2.6,29.92,NW,310,13.0,13.0,54,0.00,,,0.00,1,WeatherHawk,2013-01-02 11:28:00,
2013-01-02 06:33:00,16.3,2.6,29.92,WNW,302,10.0,18.0,54,0.00,,,0.00,0,WeatherHawk,2013-01-02 11:33:00,
2013-01-02 06:39:00,16.3,2.6,29.93,NNW,331,6.0,18.0,54,0.00,,,0.00,0,WeatherHawk,2013-01-02 11:39:00,
2013-01-02 06:44:00,16.3,3.0,29.93,NW,316,10.0,17.0,55,0.00,,,0.00,0,WeatherHawk,2013-01-02 11:44:00,
2013-01-02 06:49:00,16.3,3.0,29.92,WNW,286,9.0,18.0,55,0.00,,,0.00,0,WeatherHawk,2013-01-02 11:49:00,
2013-01-02 06:54:00,16.2,2.9,29.93,WNW,301,8.0,18.0,55,0.00,,,0.00,0,WeatherHawk,2013-01-02 11:54:00,
2013-01-02 06:59:00,16.2,3.3,29.92,NW,315,7.0,12.0,56,0.00,,,0.00,1,WeatherHawk,2013-01-02 11:59:00,
2013-01-02 07:04:00,16.2,3.3,29.92,WNW,302,9.0,12.0,56,0.00,,,0.00,1,WeatherHawk,2013-01-02 12:04:00,
2013-01-02 07:09:00,16.0,3.1,29.91,WNW,288,8.0,17.0,56,0.00,,,0.00,2,WeatherHawk,2013-01-02 12:09:00,
2013-01-02 07:14:00,16.0,3.1,29.93,NW,311,10.0,17.0,56,0.00,,,0.00,4,WeatherHawk,2013-01-02 12:14:00,
2013-01-02 07:19:00,16.0,3.1,29.92,WNW,297,9.0,14.0,56,0.00,,,0.00,6,WeatherHawk,2013-01-02 12:19:00,
2013-01-02 07:24:00,16.0,3.1,29.92,WNW,289,7.0,14.0,56,0.00,,,0.00,24,WeatherHawk,2013-01-02 12:24:00,
2013-01-02 07:29:00,16.0,3.1,29.92,NW,304,6.0,15.0,56,0.00,,,0.00,34,WeatherHawk,2013-01-02 12:29:00,
2013-01-02 07:34:00,16.2,3.3,29.92,WNW,283,11.0,15.0,56,0.00,,,0.00,43,WeatherHawk,2013-01-02 12:34:00,
2013-01-02 07:39:00,16.2,3.3,29.92,WNW,282,11.0,13.0,56,0.00,,,0.00,53,WeatherHawk,2013-01-02 12:39:00,
2013-01-02 07:44:00,16.3,3.4,29.92,NW,322,8.0,15.0,56,0.00,,,0.00,62,WeatherHawk,2013-01-02 12:44:00,
2013-01-02 07:49:00,16.5,3.2,29.92,WNW,294,10.0,15.0,55,0.00,,,0.00,50,WeatherHawk,2013-01-02 12:49:00,
2013-01-02 07:54:00,16.7,3.4,29.92,WNW,303,7.0,15.0,55,0.00,,,0.00,82,WeatherHawk,2013-01-02 12:54:00,
2013-01-02 07:59:00,16.7,3.4,29.92,WNW,295,9.0,15.0,55,0.00,,,0.00,28,WeatherHawk,2013-01-02 12:59:00,
2013-01-02 08:04:00,16.9,3.5,29.92,WNW,286,8.0,15.0,55,0.00,,,0.00,31,WeatherHawk,2013-01-02 13:04:00,
2013-01-02 08:09:00,17.1,3.7,29.92,West,281,7.0,12.0,55,0.00,,,0.00,32,WeatherHawk,2013-01-02 13:09:00,
2013-01-02 08:14:00,17.4,3.7,29.92,WNW,291,9.0,13.0,54,0.00,,,0.00,36,WeatherHawk,2013-01-02 13:14:00,
2013-01-02 08:19:00,17.6,3.8,29.92,West,279,7.0,14.0,54,0.00,,,0.00,50,WeatherHawk,2013-01-02 13:19:00,
2013-01-02 08:24:00,18.0,4.2,29.92,WNW,301,7.0,14.0,54,0.00,,,0.00,92,WeatherHawk,2013-01-02 13:24:00,
2013-01-02 08:29:00,18.3,4.1,29.92,WNW,301,7.0,13.0,53,0.00,,,0.00,70,WeatherHawk,2013-01-02 13:29:00,
2013-01-02 08:34:00,18.3,4.1,29.92,WNW,287,12.0,17.0,53,0.00,,,0.00,67,WeatherHawk,2013-01-02 13:34:00,
2013-01-02 08:39:00,18.3,4.1,29.92,West,262,9.0,17.0,53,0.00,,,0.00,105,WeatherHawk,2013-01-02 13:39:00,
2013-01-02 08:44:00,18.5,4.3,29.92,WNW,293,8.0,13.0,53,0.00,,,0.00,205,WeatherHawk,2013-01-02 13:44:00,
2013-01-02 08:49:00,19.0,4.3,29.92,WNW,295,4.0,12.0,52,0.00,,,0.00,260,WeatherHawk,2013-01-02 13:49:00,
2013-01-02 08:54:00,19.8,5.0,29.92,WNW,300,11.0,11.0,52,0.00,,,0.00,279,WeatherHawk,2013-01-02 13:54:00,
2013-01-02 08:59:00,19.9,4.8,29.91,NW,304,7.0,16.0,51,0.00,,,0.00,72,WeatherHawk,2013-01-02 13:59:00,
2013-01-02 09:04:00,20.3,4.7,29.92,WNW,302,11.0,16.0,50,0.00,,,0.00,245,WeatherHawk,2013-01-02 14:04:00,
2013-01-02 09:09:00,20.8,5.6,29.92,NW,309,11.0,16.0,51,0.00,,,0.00,256,WeatherHawk,2013-01-02 14:09:00,
2013-01-02 09:14:00,21.2,5.1,29.92,NW,314,13.0,19.0,49,0.00,,,0.00,279,WeatherHawk,2013-01-02 14:14:00,
2013-01-02 09:19:00,21.4,5.2,29.92,WNW,294,6.0,19.0,49,0.00,,,0.00,217,WeatherHawk,2013-01-02 14:19:00,
2013-01-02 09:24:00,21.9,5.3,29.92,WNW,295,8.0,18.0,48,0.00,,,0.00,335,WeatherHawk,2013-01-02 14:24:00,
2013-01-02 09:29:00,22.3,5.1,29.92,WNW,296,11.0,18.0,47,0.00,,,0.00,170,WeatherHawk,2013-01-02 14:29:00,
2013-01-02 09:34:00,22.3,5.6,29.93,WNW,302,12.0,18.0,48,0.00,,,0.00,288,WeatherHawk,2013-01-02 14:34:00,
2013-01-02 09:39:00,22.6,5.9,29.93,West,275,11.0,18.0,48,0.00,,,0.00,417,WeatherHawk,2013-01-02 14:39:00,
2013-01-02 09:44:00,22.8,6.1,29.93,WNW,291,15.0,16.0,48,0.00,,,0.00,214,WeatherHawk,2013-01-02 14:44:00,
2013-01-02 09:49:00,23.0,6.3,29.92,WNW,296,17.0,17.0,48,0.00,,,0.00,331,WeatherHawk,2013-01-02 14:49:00,
2013-01-02 09:54:00,23.2,6.9,29.93,WNW,294,21.0,21.0,49,0.00,,,0.00,232,WeatherHawk,2013-01-02 14:54:00,
2013-01-02 09:59:00,23.4,7.1,29.93,WNW,301,10.0,22.0,49,0.00,,,0.00,274,WeatherHawk,2013-01-02 14:59:00,
2013-01-02 10:04:00,23.7,7.4,29.93,WNW,283,13.0,22.0,49,0.00,,,0.00,235,WeatherHawk,2013-01-02 15:04:00,
2013-01-02 10:09:00,23.9,7.1,29.92,WNW,300,14.0,18.0,48,0.00,,,0.00,239,WeatherHawk,2013-01-02 15:09:00,
2013-01-02 10:14:00,23.9,7.6,29.92,WNW,298,18.0,23.0,49,0.00,,,0.00,254,WeatherHawk,2013-01-02 15:14:00,
2013-01-02 10:19:00,24.3,7.9,29.92,West,281,16.0,25.0,49,0.00,,,0.00,284,WeatherHawk,2013-01-02 15:19:00,
2013-01-02 10:24:00,24.4,8.1,29.92,WNW,298,20.0,25.0,49,0.00,,,0.00,312,WeatherHawk,2013-01-02 15:24:00,
2013-01-02 10:29:00,24.6,8.2,29.91,WNW,291,25.0,25.0,49,0.00,,,0.00,300,WeatherHawk,2013-01-02 15:29:00,
2013-01-02 10:34:00,24.8,8.4,29.91,WNW,297,9.0,25.0,49,0.00,,,0.00,222,WeatherHawk,2013-01-02 15:34:00,
2013-01-02 10:39:00,25.2,8.7,29.92,NW,310,11.0,25.0,49,0.00,,,0.00,236,WeatherHawk,2013-01-02 15:39:00,
2013-01-02 10:44:00,25.2,8.7,29.92,WNW,300,23.0,28.0,49,0.00,,,0.00,290,WeatherHawk,2013-01-02 15:44:00,
2013-01-02 10:49:00,25.3,8.4,29.91,WNW,294,19.0,28.0,48,0.00,,,0.00,361,WeatherHawk,2013-01-02 15:49:00,
2013-01-02 10:54:00,25.7,8.8,29.91,WNW,298,20.0,26.0,48,0.00,,,0.00,306,WeatherHawk,2013-01-02 15:54:00,
2013-01-02 10:59:00,25.7,8.8,29.91,NW,304,15.0,25.0,48,0.00,,,0.00,277,WeatherHawk,2013-01-02 15:59:00,
2013-01-02 11:04:00,26.2,9.3,29.91,WNW,302,8.0,25.0,48,0.00,,,0.00,285,WeatherHawk,2013-01-02 16:04:00,
2013-01-02 11:09:00,26.6,9.6,29.91,NW,308,18.0,24.0,48,0.00,,,0.00,179,WeatherHawk,2013-01-02 16:09:00,
2013-01-02 11:14:00,26.6,9.6,29.90,West,280,21.0,26.0,48,0.00,,,0.00,430,WeatherHawk,2013-01-02 16:14:00,
2013-01-02 11:19:00,27.0,9.4,29.90,WNW,285,14.0,26.0,47,0.00,,,0.00,430,WeatherHawk,2013-01-02 16:19:00,
2013-01-02 11:24:00,27.3,9.8,29.91,WNW,300,14.0,24.0,47,0.00,,,0.00,433,WeatherHawk,2013-01-02 16:24:00,
2013-01-02 11:29:00,27.5,9.5,29.90,NW,318,14.0,19.0,46,0.00,,,0.00,442,WeatherHawk,2013-01-02 16:29:00,
2013-01-02 11:34:00,27.5,9.5,29.90,West,272,10.0,19.0,46,0.00,,,0.00,431,WeatherHawk,2013-01-02 16:34:00,
2013-01-02 11:39:00,27.5,9.5,29.90,WNW,286,14.0,20.0,46,0.00,,,0.00,455,WeatherHawk,2013-01-02 16:39:00,
2013-01-02 11:44:00,27.9,9.8,29.90,WNW,300,13.0,20.0,46,0.00,,,0.00,437,WeatherHawk,2013-01-02 16:44:00,
2013-01-02 11:49:00,28.2,9.6,29.90,NW,312,21.0,21.0,45,0.00,,,0.00,431,WeatherHawk,2013-01-02 16:49:00,
2013-01-02 11:54:00,27.7,9.6,29.90,WNW,290,15.0,23.0,46,0.00,,,0.00,421,WeatherHawk,2013-01-02 16:54:00,
2013-01-02 11:59:00,27.7,9.6,29.89,WNW,293,21.0,23.0,46,0.00,,,0.00,422,WeatherHawk,2013-01-02 16:59:00,
2013-01-02 12:04:00,27.7,9.6,29.89,WNW,301,14.0,23.0,46,0.00,,,0.00,425,WeatherHawk,2013-01-02 17:04:00,
2013-01-02 12:09:00,27.9,9.8,29.89,WNW,287,13.0,23.0,46,0.00,,,0.00,420,WeatherHawk,2013-01-02 17:09:00,
2013-01-02 12:14:00,28.0,9.5,29.89,WNW,299,11.0,21.0,45,0.00,,,0.00,416,WeatherHawk,2013-01-02 17:14:00,
2013-01-02 12:19:00,28.0,9.5,29.89,WNW,300,18.0,19.0,45,0.00,,,0.00,426,WeatherHawk,2013-01-02 17:19:00,
2013-01-02 12:24:00,28.4,9.8,29.89,WNW,291,11.0,20.0,45,0.00,,,0.00,422,WeatherHawk,2013-01-02 17:24:00,
2013-01-02 12:29:00,28.6,10.0,29.89,WNW,296,13.0,20.0,45,0.00,,,0.00,409,WeatherHawk,2013-01-02 17:29:00,
2013-01-02 12:34:00,28.6,10.0,29.89,WNW,292,15.0,22.0,45,0.00,,,0.00,301,WeatherHawk,2013-01-02 17:34:00,
2013-01-02 12:39:00,28.6,10.0,29.89,NW,319,20.0,22.0,45,0.00,,,0.00,233,WeatherHawk,2013-01-02 17:39:00,
2013-01-02 12:44:00,28.6,10.0,29.89,NW,308,15.0,26.0,45,0.00,,,0.00,419,WeatherHawk,2013-01-02 17:44:00,
2013-01-02 12:49:00,29.1,10.0,29.89,NW,305,15.0,26.0,44,0.00,,,0.00,455,WeatherHawk,2013-01-02 17:49:00,
2013-01-02 12:54:00,29.1,10.0,29.89,WNW,299,20.0,20.0,44,0.00,,,0.00,123,WeatherHawk,2013-01-02 17:54:00,
2013-01-02 12:59:00,28.8,9.6,29.89,WNW,302,24.0,24.0,44,0.00,,,0.00,149,WeatherHawk,2013-01-02 17:59:00,
2013-01-02 13:04:00,28.8,9.6,29.89,NW,304,11.0,24.0,44,0.00,,,0.00,191,WeatherHawk,2013-01-02 18:04:00,
2013-01-02 13:09:00,28.6,9.5,29.89,NW,317,15.0,25.0,44,0.00,,,0.00,220,WeatherHawk,2013-01-02 18:09:00,
2013-01-02 13:14:00,28.9,9.8,29.90,NNW,329,14.0,25.0,44,0.00,,,0.00,226,WeatherHawk,2013-01-02 18:14:00,
2013-01-02 13:19:00,28.8,9.6,29.90,NW,314,12.0,24.0,44,0.00,,,0.00,163,WeatherHawk,2013-01-02 18:19:00,
2013-01-02 13:24:00,28.2,9.6,29.90,NNW,341,8.0,22.0,45,0.00,,,0.00,178,WeatherHawk,2013-01-02 18:24:00,
2013-01-02 13:29:00,28.2,10.1,29.90,NW,304,10.0,22.0,46,0.00,,,0.00,154,WeatherHawk,2013-01-02 18:29:00,
2013-01-02 13:34:00,28.0,10.4,29.90,WNW,300,11.0,21.0,47,0.00,,,0.00,169,WeatherHawk,2013-01-02 18:34:00,
2013-01-02 13:39:00,27.9,10.3,29.89,NW,306,17.0,21.0,47,0.00,,,0.00,148,WeatherHawk,2013-01-02 18:39:00,
2013-01-02 13:44:00,27.9,11.2,29.90,NW,311,13.0,21.0,49,0.00,,,0.00,144,WeatherHawk,2013-01-02 18:44:00,
2013-01-02 13:49:00,27.7,11.0,29.90,NW,326,11.0,22.0,49,0.00,,,0.00,110,WeatherHawk,2013-01-02 18:49:00,
2013-01-02 13:54:00,27.5,11.8,29.90,NW,310,8.0,22.0,51,0.00,,,0.00,96,WeatherHawk,2013-01-02 18:54:00,
2013-01-02 13:59:00,27.5,11.8,29.90,WNW,283,12.0,20.0,51,0.00,,,0.00,122,WeatherHawk,2013-01-02 18:59:00,
2013-01-02 14:04:00,27.5,12.2,29.90,NNW,333,7.0,21.0,52,0.00,,,0.00,123,WeatherHawk,2013-01-02 19:04:00,
2013-01-02 14:09:00,27.7,12.4,29.91,WNW,295,20.0,21.0,52,0.00,,,0.00,110,WeatherHawk,2013-01-02 19:09:00,
2013-01-02 14:14:00,27.3,12.0,29.91,WNW,303,12.0,20.0,52,0.00,,,0.00,105,WeatherHawk,2013-01-02 19:14:00,
2013-01-02 14:19:00,27.3,11.6,29.92,WNW,294,8.0,20.0,51,0.00,,,0.00,119,WeatherHawk,2013-01-02 19:19:00,
2013-01-02 14:24:00,27.5,11.8,29.92,NW,316,10.0,18.0,51,0.00,,,0.00,136,WeatherHawk,2013-01-02 19:24:00,
2013-01-02 14:29:00,27.5,12.2,29.92,WNW,283,9.0,17.0,52,0.00,,,0.00,95,WeatherHawk,2013-01-02 19:29:00,
2013-01-02 14:34:00,27.5,11.8,29.92,NW,310,20.0,20.0,51,0.00,,,0.00,81,WeatherHawk,2013-01-02 19:34:00,
2013-01-02 14:39:00,27.5,12.2,29.92,WNW,297,7.0,20.0,52,0.00,,,0.00,51,WeatherHawk,2013-01-02 19:39:00,
2013-01-02 14:44:00,27.5,11.8,29.93,WNW,293,8.0,20.0,51,0.00,,,0.00,54,WeatherHawk,2013-01-02 19:44:00,
2013-01-02 14:49:00,27.3,11.2,29.93,WNW,297,14.0,20.0,50,0.00,,,0.00,66,WeatherHawk,2013-01-02 19:49:00,
2013-01-02 14:54:00,27.1,11.0,29.93,WNW,303,15.0,23.0,50,0.00,,,0.00,78,WeatherHawk,2013-01-02 19:54:00,
2013-01-02 14:59:00,27.1,11.4,29.93,NW,314,14.0,23.0,51,0.00,,,0.00,61,WeatherHawk,2013-01-02 19:59:00,
2013-01-02 15:04:00,27.1,11.4,29.94,NW,305,9.0,19.0,51,0.00,,,0.00,60,WeatherHawk,2013-01-02 20:04:00,
2013-01-02 15:09:00,27.1,11.9,29.94,NNW,331,5.0,19.0,52,0.00,,,0.00,62,WeatherHawk,2013-01-02 20:09:00,
2013-01-02 15:14:00,27.1,11.9,29.94,NW,316,6.0,15.0,52,0.00,,,0.00,132,WeatherHawk,2013-01-02 20:14:00,
2013-01-02 15:19:00,27.1,11.9,29.94,NW,306,16.0,16.0,52,0.00,,,0.00,115,WeatherHawk,2013-01-02 20:19:00,
2013-01-02 15:24:00,27.3,12.0,29.94,NW,309,8.0,17.0,52,0.00,,,0.00,132,WeatherHawk,2013-01-02 20:24:00,
2013-01-02 15:29:00,27.1,11.9,29.94,WNW,299,18.0,22.0,52,0.00,,,0.00,46,WeatherHawk,2013-01-02 20:29:00,
2013-01-02 15:34:00,27.0,11.7,29.95,NW,316,19.0,24.0,52,0.00,,,0.00,44,WeatherHawk,2013-01-02 20:34:00,
2013-01-02 15:39:00,26.8,11.5,29.95,WNW,300,13.0,24.0,52,0.00,,,0.00,23,WeatherHawk,2013-01-02 20:39:00,
2013-01-02 15:44:00,26.6,11.4,29.95,WNW,288,12.0,20.0,52,0.00,,,0.00,19,WeatherHawk,2013-01-02 20:44:00,
2013-01-02 15:49:00,26.4,11.6,29.96,NNW,333,8.0,18.0,53,0.00,,,0.00,15,WeatherHawk,2013-01-02 20:49:00,
2013-01-02 15:54:00,26.2,11.5,29.96,NNW,342,11.0,18.0,53,0.00,,,0.00,13,WeatherHawk,2013-01-02 20:54:00,
2013-01-02 15:59:00,26.2,11.5,29.97,NW,326,8.0,18.0,53,0.00,,,0.00,13,WeatherHawk,2013-01-02 20:59:00,
2013-01-02 16:04:00,26.1,11.7,29.97,NNW,337,6.0,18.0,54,0.00,,,0.00,9,WeatherHawk,2013-01-02 21:04:00,
2013-01-02 16:09:00,26.1,11.7,29.96,WNW,295,19.0,19.0,54,0.00,,,0.00,5,WeatherHawk,2013-01-02 21:09:00,
2013-01-02 16:14:00,25.9,11.6,29.97,NW,323,8.0,22.0,54,0.00,,,0.00,5,WeatherHawk,2013-01-02 21:14:00,
2013-01-02 16:19:00,25.9,12.0,29.97,NW,314,5.0,22.0,55,0.00,,,0.00,1,WeatherHawk,2013-01-02 21:19:00,
2013-01-02 16:24:00,25.7,11.8,29.98,NNW,330,5.0,10.0,55,0.00,,,0.00,2,WeatherHawk,2013-01-02 21:24:00,
2013-01-02 16:29:00,25.5,11.6,29.98,WNW,282,7.0,13.0,55,0.00,,,0.00,1,WeatherHawk,2013-01-02 21:29:00,
2013-01-02 16:34:00,25.5,12.0,29.98,WNW,288,8.0,15.0,56,0.00,,,0.00,0,WeatherHawk,2013-01-02 21:34:00,
2013-01-02 16:39:00,25.3,12.3,29.98,WNW,303,8.0,15.0,57,0.00,,,0.00,0,WeatherHawk,2013-01-02 21:39:00,
2013-01-02 16:44:00,25.2,12.5,29.98,NW,306,9.0,12.0,58,0.00,,,0.00,0,WeatherHawk,2013-01-02 21:44:00,
2013-01-02 16:49:00,25.2,12.5,29.98,WNW,300,9.0,12.0,58,0.00,,,0.00,0,WeatherHawk,2013-01-02 21:49:00,
2013-01-02 16:54:00,25.0,12.7,29.99,NW,317,5.0,13.0,59,0.00,,,0.00,0,WeatherHawk,2013-01-02 21:54:00,
2013-01-02 16:59:00,25.0,12.7,29.99,NW,304,7.0,13.0,59,0.00,,,0.00,0,WeatherHawk,2013-01-02 21:59:00,
2013-01-02 17:05:00,24.8,12.5,29.99,NW,320,11.0,12.0,59,0.00,,,0.00,0,WeatherHawk,2013-01-02 22:05:00,
2013-01-02 17:10:00,24.8,12.5,30.00,WNW,291,5.0,14.0,59,0.00,,,0.00,0,WeatherHawk,2013-01-02 22:10:00,
2013-01-02 17:15:00,24.6,12.0,30.00,NNW,330,4.0,14.0,58,0.00,,,0.00,0,WeatherHawk,2013-01-02 22:15:00,
2013-01-02 17:20:00,24.6,11.6,30.00,NW,314,9.0,12.0,57,0.00,,,0.00,0,WeatherHawk,2013-01-02 22:20:00,
2013-01-02 17:25:00,24.6,11.6,30.00,NW,309,6.0,13.0,57,0.00,,,0.00,0,WeatherHawk,2013-01-02 22:25:00,
2013-01-02 17:30:00,24.4,11.0,30.00,NW,309,6.0,13.0,56,0.00,,,0.00,0,WeatherHawk,2013-01-02 22:30:00,
2013-01-02 17:35:00,24.3,11.2,30.00,WNW,298,7.0,11.0,57,0.00,,,0.00,0,WeatherHawk,2013-01-02 22:35:00,
2013-01-02 17:40:00,24.3,11.2,30.00,WNW,300,9.0,-999.0,57,0.00,,,0.00,0,WeatherHawk,2013-01-02 22:40:00,
2013-01-02 17:45:00,24.1,10.7,30.00,WNW,297,9.0,11.0,56,0.00,,,0.00,0,WeatherHawk,2013-01-02 22:45:00,
2013-01-02 17:50:00,24.1,10.3,30.00,WNW,287,9.0,-999.0,55,0.00,,,0.00,0,WeatherHawk,2013-01-02 22:50:00,
2013-01-02 17:55:00,24.1,9.9,30.00,WNW,300,7.0,13.0,54,0.00,,,0.00,0,WeatherHawk,2013-01-02 22:55:00,
2013-01-02 18:00:00,24.3,7.9,30.00,NNW,327,11.0,20.0,49,0.00,,,0.00,0,WeatherHawk,2013-01-02 23:00:00,
2013-01-02 18:05:00,24.3,6.5,30.01,WNW,294,13.0,20.0,46,0.00,,,0.00,0,WeatherHawk,2013-01-02 23:05:00,
2013-01-02 18:10:00,24.1,5.8,30.01,NW,306,15.0,-999.0,45,0.00,,,0.00,0,WeatherHawk,2013-01-02 23:10:00,
2013-01-02 18:15:00,24.1,5.8,30.01,WNW,300,19.0,23.0,45,0.00,,,0.00,0,WeatherHawk,2013-01-02 23:15:00,
2013-01-02 18:20:00,23.9,5.7,30.01,NNW,330,7.0,-999.0,45,0.00,,,0.00,0,WeatherHawk,2013-01-02 23:20:00,
2013-01-02 18:25:00,23.7,5.5,30.01,WNW,300,8.0,22.0,45,0.00,,,0.00,0,WeatherHawk,2013-01-02 23:25:00,
2013-01-02 18:30:00,23.5,7.2,30.01,NW,314,10.0,16.0,49,0.00,,,0.00,0,WeatherHawk,2013-01-02 23:30:00,
2013-01-02 18:35:00,23.2,7.3,30.01,NNW,336,6.0,11.0,50,0.00,,,0.00,0,WeatherHawk,2013-01-02 23:35:00,
2013-01-02 18:40:00,23.0,8.0,30.02,NW,323,5.0,11.0,52,0.00,,,0.00,0,WeatherHawk,2013-01-02 23:40:00,
2013-01-02 18:45:00,22.8,8.3,30.02,NNW,346,4.0,9.0,53,0.00,,,0.00,0,WeatherHawk,2013-01-02 23:45:00,
2013-01-02 18:50:00,22.6,7.7,30.02,NW,314,7.0,9.0,52,0.00,,,0.00,0,WeatherHawk,2013-01-02 23:50:00,
2013-01-02 18:55:00,22.5,7.1,30.02,NNW,343,6.0,12.0,51,0.00,,,0.00,0,WeatherHawk,2013-01-02 23:55:00,
2013-01-02 19:00:00,22.3,6.9,30.02,NW,304,10.0,13.0,51,0.00,,,0.00,0,WeatherHawk,2013-01-03 00:00:00,
2013-01-02 19:05:00,22.1,7.2,30.02,NNW,335,6.0,15.0,52,0.00,,,0.00,0,WeatherHawk,2013-01-03 00:05:00,
2013-01-02 19:10:00,21.9,6.6,30.02,NW,306,10.0,15.0,51,0.00,,,0.00,0,WeatherHawk,2013-01-03 00:10:00,
2013-01-02 19:15:00,21.7,6.4,30.02,NNW,331,5.0,14.0,51,0.00,,,0.00,0,WeatherHawk,2013-01-03 00:15:00,
2013-01-02 19:20:00,21.7,6.0,30.03,NNW,347,4.0,14.0,50,0.00,,,0.00,0,WeatherHawk,2013-01-03 00:20:00,
2013-01-02 19:25:00,21.6,5.8,30.03,WNW,296,8.0,-999.0,50,0.00,,,0.00,0,WeatherHawk,2013-01-03 00:25:00,
2013-01-02 19:30:00,21.4,5.2,30.02,North,349,7.0,15.0,49,0.00,,,0.00,0,WeatherHawk,2013-01-03 00:30:00,
2013-01-02 19:36:00,21.4,5.7,30.02,NW,311,11.0,15.0,50,0.00,,,0.00,0,WeatherHawk,2013-01-03 00:36:00,
2013-01-02 19:42:00,21.2,5.1,30.02,NW,316,10.0,17.0,49,0.00,,,0.00,0,WeatherHawk,2013-01-03 00:42:00,
2013-01-02 19:47:00,21.0,5.3,30.02,NW,312,14.0,17.0,50,0.00,,,0.00,0,WeatherHawk,2013-01-03 00:47:00,
2013-01-02 19:52:00,21.0,5.3,30.03,NNW,332,5.0,16.0,50,0.00,,,0.00,0,WeatherHawk,2013-01-03 00:52:00,
2013-01-02 19:57:00,20.8,5.2,30.04,NNW,337,3.0,14.0,50,0.00,,,0.00,0,WeatherHawk,2013-01-03 00:57:00,
2013-01-02 20:02:00,20.7,5.0,30.03,NW,305,11.0,11.0,50,0.00,,,0.00,0,WeatherHawk,2013-01-03 01:02:00,
2013-01-02 20:07:00,20.5,4.8,30.03,WNW,297,8.0,17.0,50,0.00,,,0.00,0,WeatherHawk,2013-01-03 01:07:00,
2013-01-02 20:12:00,20.5,4.4,30.03,WNW,284,10.0,17.0,49,0.00,,,0.00,0,WeatherHawk,2013-01-03 01:12:00,
2013-01-02 20:17:00,20.3,4.2,30.03,NW,305,10.0,19.0,49,0.00,,,0.00,0,WeatherHawk,2013-01-03 01:17:00,
2013-01-02 20:22:00,20.1,4.1,30.04,NW,304,8.0,19.0,49,0.00,,,0.00,0,WeatherHawk,2013-01-03 01:22:00,
2013-01-02 20:27:00,19.9,3.9,30.04,NW,310,10.0,19.0,49,0.00,,,0.00,0,WeatherHawk,2013-01-03 01:27:00,
2013-01-02 20:32:00,19.6,3.1,30.03,NW,311,13.0,15.0,48,0.00,,,0.00,0,WeatherHawk,2013-01-03 01:32:00,
2013-01-02 20:37:00,19.2,2.8,30.04,NNW,333,10.0,15.0,48,0.00,,,0.00,0,WeatherHawk,2013-01-03 01:37:00,
2013-01-02 20:42:00,19.0,2.6,30.04,NNW,341,7.0,15.0,48,0.00,,,0.00,0,WeatherHawk,2013-01-03 01:42:00,
2013-01-02 20:47:00,18.9,2.9,30.04,NW,307,7.0,17.0,49,0.00,,,0.00,0,WeatherHawk,2013-01-03 01:47:00,
2013-01-02 20:52:00,18.5,2.6,30.04,NW,326,6.0,17.0,49,0.00,,,0.00,0,WeatherHawk,2013-01-03 01:52:00,
2013-01-02 20:57:00,18.3,2.4,30.04,NNW,334,8.0,16.0,49,0.00,,,0.00,0,WeatherHawk,2013-01-03 01:57:00,
2013-01-02 21:02:00,18.1,1.8,30.04,NNW,345,9.0,16.0,48,0.00,,,0.00,0,WeatherHawk,2013-01-03 02:02:00,
2013-01-02 21:07:00,18.0,1.6,30.05,NW,326,8.0,16.0,48,0.00,,,0.00,0,WeatherHawk,2013-01-03 02:07:00,
2013-01-02 21:12:00,17.6,1.3,30.05,NNW,329,14.0,16.0,48,0.00,,,0.00,0,WeatherHawk,2013-01-03 02:12:00,
2013-01-02 21:17:00,17.2,1.0,30.06,NW,318,9.0,17.0,48,0.00,,,0.00,0,WeatherHawk,2013-01-03 02:17:00,
2013-01-02 21:22:00,17.1,1.2,30.06,NNW,329,5.0,17.0,49,0.00,,,0.00,0,WeatherHawk,2013-01-03 02:22:00,
2013-01-02 21:27:00,16.9,1.1,30.06,NW,318,9.0,16.0,49,0.00,,,0.00,0,WeatherHawk,2013-01-03 02:27:00,
2013-01-02 21:32:00,16.7,0.9,30.06,NW,306,7.0,16.0,49,0.00,,,0.00,0,WeatherHawk,2013-01-03 02:32:00,
2013-01-02 21:37:00,16.3,0.6,30.07,NNW,345,6.0,14.0,49,0.00,,,0.00,0,WeatherHawk,2013-01-03 02:37:00,
2013-01-02 21:42:00,16.2,0.4,30.07,NNW,338,8.0,13.0,49,0.00,,,0.00,0,WeatherHawk,2013-01-03 02:42:00,
2013-01-02 21:47:00,16.0,0.7,30.07,NW,319,9.0,15.0,50,0.00,,,0.00,1,WeatherHawk,2013-01-03 02:47:00,
2013-01-02 21:52:00,15.8,0.5,30.07,NNW,332,6.0,15.0,50,0.00,,,0.00,0,WeatherHawk,2013-01-03 02:52:00,
2013-01-02 21:57:00,15.6,0.3,30.07,NW,324,9.0,15.0,50,0.00,,,0.00,0,WeatherHawk,2013-01-03 02:57:00,
2013-01-02 22:02:00,15.4,-0.3,30.06,NW,310,12.0,20.0,49,0.00,,,0.00,0,WeatherHawk,2013-01-03 03:02:00,
2013-01-02 22:07:00,15.1,-1.9,30.06,NNW,347,12.0,23.0,46,0.00,,,0.00,0,WeatherHawk,2013-01-03 03:07:00,
2013-01-02 22:12:00,14.7,-2.7,30.07,NW,321,17.0,23.0,45,0.00,,,0.00,0,WeatherHawk,2013-01-03 03:12:00,
2013-01-02 22:17:00,14.5,-2.9,30.07,NW,314,13.0,23.0,45,0.00,,,0.00,0,WeatherHawk,2013-01-03 03:17:00,
2013-01-02 22:22:00,14.4,-3.1,30.07,WNW,303,16.0,22.0,45,0.00,,,0.00,0,WeatherHawk,2013-01-03 03:22:00,
2013-01-02 22:27:00,14.2,-3.2,30.07,WNW,301,11.0,22.0,45,0.00,,,0.00,0,WeatherHawk,2013-01-03 03:27:00,
2013-01-02 22:32:00,13.8,-3.5,30.08,NW,310,8.0,21.0,45,0.00,,,0.00,0,WeatherHawk,2013-01-03 03:32:00,
2013-01-02 22:37:00,13.6,-3.7,30.07,NW,307,16.0,20.0,45,0.00,,,0.00,0,WeatherHawk,2013-01-03 03:37:00,
2013-01-02 22:44:00,13.5,-3.9,30.06,WNW,298,21.0,21.0,45,0.00,,,0.00,0,WeatherHawk,2013-01-03 03:44:00,
2013-01-02 22:50:00,13.1,-4.2,30.06,WNW,302,19.0,21.0,45,0.00,,,0.00,0,WeatherHawk,2013-01-03 03:50:00,
2013-01-02 22:55:00,12.9,-4.4,30.07,NW,306,15.0,24.0,45,0.00,,,0.00,0,WeatherHawk,2013-01-03 03:55:00,
2013-01-02 23:00:00,12.6,-5.2,30.07,WNW,301,18.0,24.0,44,0.00,,,0.00,0,WeatherHawk,2013-01-03 04:00:00,
2013-01-02 23:05:00,12.4,-5.3,30.06,NW,316,20.0,23.0,44,0.00,,,0.00,0,WeatherHawk,2013-01-03 04:05:00,
2013-01-02 23:10:00,12.0,-5.7,30.06,NW,305,21.0,28.0,44,0.00,,,0.00,0,WeatherHawk,2013-01-03 04:10:00,
2013-01-02 23:15:00,11.7,-5.5,30.07,NW,312,20.0,30.0,45,0.00,,,0.00,0,WeatherHawk,2013-01-03 04:15:00,
2013-01-02 23:20:00,11.5,-5.7,30.06,NW,314,17.0,32.0,45,0.00,,,0.00,0,WeatherHawk,2013-01-03 04:20:00,
2013-01-02 23:25:00,11.1,-6.0,30.05,WNW,298,25.0,32.0,45,0.00,,,0.00,0,WeatherHawk,2013-01-03 04:25:00,
2013-01-02 23:31:00,10.9,-6.2,30.06,NW,313,19.0,29.0,45,0.00,,,0.00,0,WeatherHawk,2013-01-03 04:31:00,
2013-01-02 23:36:00,10.8,-6.4,30.06,NNW,339,9.0,29.0,45,0.00,,,0.00,0,WeatherHawk,2013-01-03 04:36:00,
2013-01-02 23:41:00,10.6,-6.5,30.06,WNW,297,18.0,24.0,45,0.00,,,0.00,0,WeatherHawk,2013-01-03 04:41:00,
2013-01-02 23:46:00,10.4,-6.7,30.06,WNW,300,11.0,29.0,45,0.00,,,0.00,0,WeatherHawk,2013-01-03 04:46:00,
2013-01-02 23:51:00,10.2,-6.9,30.06,NW,315,23.0,29.0,45,0.00,,,0.00,0,WeatherHawk,2013-01-03 04:51:00,
2013-01-02 23:56:00,10.2,-7.3,30.06,NW,309,14.0,29.0,44,0.00,,,0.00,0,WeatherHawk,2013-01-03 04:56:00,